Walla Walla, WA

10:45 PM PDT on June 19, 2018 (GMT -0700)
Walla Walla Regional

Weather History for KALW - June, 2018

Change the Weather History Date:

Thursday, June 14, 2018

  Actual Average Record
Temperature  
Mean Temperature 63 °F 66 °F  
Max Temperature 74 °F 78 °F 102 °F (1987)
Min Temperature 52 °F 54 °F 43 °F (1954)
Degree Days  
Heating Degree Days 2 2  
Month to date heating degree days 28 40  
Since 1 June heating degree days 28 40  
Since 1 July heating degree days 4460 4989  
Cooling Degree Days 0 3  
Month to date cooling degree days 28 33  
Year to date cooling degree days 110 68  
Since 1 June cooling degree days 28 33  
Growing Degree Days 14 (Base 50)    
Moisture  
Dew Point 41 °F    
Average Humidity 44    
Maximum Humidity 61    
Minimum Humidity 27    
Precipitation  
Precipitation 0.00 in 0.04 in 0.67 in (1960)
Month to date precipitation 0.20 0.77  
Year to date precipitation 9.50 11.41  
Snow  
Snow 0.00 in 0.00 in 0.00 in (2002)
Month to date snowfall 0.0 0.0  
Year to date snowfall 0.6 6.0  
Since 1 July snowfall 10.7 11.7  
Snow Depth 0.00 in    
Sea Level Pressure  
Sea Level Pressure 29.95 in    
Wind  
Wind Speed 9 mph (South)    
Max Wind Speed 18 mph    
Max Gust Speed 23 mph    
Visibility 10 miles    
Events      
T = Trace of Precipitation, MM = Missing Value Source: NWS Daily Summary

Daily Weather History Graph

Daily Weather History Graph

Search for Another Location

Airport or City:

Astronomy

Jun. 14, 2018 Rise Set
Actual Time 5:01 AM PDT 8:45 PM PDT
Civil Twilight 4:22 AM PDT 9:24 PM PDT
Nautical Twilight 3:30 AM PDT 10:16 PM PDT
Astronomical Twilight 2:18 AM PDT 11:29 PM PDT
Moon 6:06 AM PDT (6/14) 9:48 PM PDT (6/14)
Length of Visible Light 17h 01m
Length of Day
15h 44m
New Moon, 1% of the Moon is Illuminated
Jun 14
New Moon
Jun 20
First Quarter
Jun 27
Full
Jul 6
Last Quarter
Jul 12
New

Hourly Weather History & Observations

Time (PDT) Temp. Dew Point Humidity Pressure Visibility Wind Dir Wind Speed Gust Speed Precip Events Conditions
12:53 AM 57.9 °F 43.0 °F 58% 29.93 in 10.0 mi SSW 10.4 mph - N/A   Mostly Cloudy
1:53 AM 57.0 °F 42.1 °F 57% 29.92 in 10.0 mi SSW 11.5 mph - N/A   Mostly Cloudy
2:53 AM 57.0 °F 42.1 °F 57% 29.94 in 10.0 mi South 10.4 mph - N/A   Overcast
3:53 AM 55.9 °F 43.0 °F 62% 29.95 in 10.0 mi South 9.2 mph - N/A   Overcast
4:53 AM 55.9 °F 42.1 °F 60% 29.97 in 10.0 mi South 9.2 mph - N/A   Overcast
5:53 AM 55.9 °F 43.0 °F 62% 29.99 in 10.0 mi South 11.5 mph - N/A   Overcast
6:53 AM 57.0 °F 42.1 °F 57% 30.01 in 10.0 mi South 12.7 mph - N/A   Overcast
7:53 AM 57.9 °F 43.0 °F 58% 30.02 in 10.0 mi SSW 12.7 mph - N/A   Partly Cloudy
8:53 AM 61.0 °F 42.1 °F 50% 30.03 in 10.0 mi South 13.8 mph - N/A   Clear
9:53 AM 63.0 °F 42.1 °F 46% 30.02 in 10.0 mi South 13.8 mph 21.9 mph N/A   Clear
10:53 AM 64.9 °F 41.0 °F 42% 30.02 in 10.0 mi SW 10.4 mph - N/A   Scattered Clouds
11:53 AM 66.0 °F 39.9 °F 38% 30.01 in 10.0 mi SW 8.1 mph - N/A   Partly Cloudy
12:53 PM 68.0 °F 39.0 °F 35% 30.00 in 10.0 mi SSW 11.5 mph 17.3 mph N/A   Mostly Cloudy
1:53 PM 70.0 °F 39.0 °F 32% 29.98 in 10.0 mi SSW 6.9 mph - N/A   Partly Cloudy
2:53 PM 71.1 °F 39.0 °F 31% 29.96 in 10.0 mi West 6.9 mph - N/A   Clear
3:53 PM 72.0 °F 37.9 °F 29% 29.94 in 10.0 mi South 10.4 mph - N/A   Clear
4:53 PM 73.0 °F 37.9 °F 28% 29.91 in 10.0 mi SSW 10.4 mph - N/A   Clear
5:53 PM 73.0 °F 37.9 °F 28% 29.89 in 10.0 mi SW 5.8 mph - N/A   Clear
6:53 PM 72.0 °F 41.0 °F 33% 29.88 in 10.0 mi Variable 4.6 mph - N/A   Clear
7:53 PM 71.1 °F 41.0 °F 34% 29.88 in 10.0 mi Calm Calm - N/A   Clear
8:53 PM 64.0 °F 43.0 °F 46% 29.88 in 10.0 mi East 5.8 mph - N/A   Clear
9:53 PM 60.1 °F 44.1 °F 55% 29.88 in 10.0 mi East 8.1 mph - N/A   Clear
10:53 PM 59.0 °F 44.1 °F 58% 29.87 in 10.0 mi East 8.1 mph - N/A   Clear
11:53 PM 59.0 °F 43.0 °F 55% 29.85 in 10.0 mi East 8.1 mph - N/A   Clear